Year,Month,Day,Hour,Minute,Value (Times are PST for temperature in C)
2016,08,19,00,00,20.60
2016,08,19,00,01,20.50
2016,08,19,00,02,20.40
2016,08,19,00,03,20.40
2016,08,19,00,04,20.30
2016,08,19,00,05,20.20
2016,08,19,00,06,20.20
2016,08,19,00,07,20.10
2016,08,19,00,08,20.10
2016,08,19,00,09,20.10
2016,08,19,00,10,20.10
2016,08,19,00,11,20.00
2016,08,19,00,12,20.00
2016,08,19,00,13,19.90
2016,08,19,00,14,19.80
2016,08,19,00,15,19.80
2016,08,19,00,16,19.70
2016,08,19,00,17,19.60
2016,08,19,00,18,19.60
2016,08,19,00,19,19.50
2016,08,19,00,20,19.40
2016,08,19,00,21,19.30
2016,08,19,00,22,19.20
2016,08,19,00,23,19.10
2016,08,19,00,24,19.00
2016,08,19,00,25,18.90
2016,08,19,00,26,18.80
2016,08,19,00,27,18.80
2016,08,19,00,28,18.80
2016,08,19,00,29,18.70
2016,08,19,00,30,18.80
2016,08,19,00,31,18.90
2016,08,19,00,32,19.10
2016,08,19,00,33,19.30
2016,08,19,00,34,19.40
2016,08,19,00,35,19.60
2016,08,19,00,36,19.70
2016,08,19,00,37,19.80
2016,08,19,00,38,19.90
2016,08,19,00,39,20.10
2016,08,19,00,40,20.10
2016,08,19,00,41,20.20
2016,08,19,00,42,20.30
2016,08,19,00,43,20.30
2016,08,19,00,44,20.30
2016,08,19,00,45,20.30
2016,08,19,00,46,20.30
2016,08,19,00,47,20.30
2016,08,19,00,48,20.30
2016,08,19,00,49,20.30
2016,08,19,00,50,20.30
2016,08,19,00,51,20.30
2016,08,19,00,52,20.30
2016,08,19,00,53,20.30
2016,08,19,00,54,20.40
2016,08,19,00,55,20.40
2016,08,19,00,56,20.50
2016,08,19,00,57,20.60
2016,08,19,00,58,20.60
2016,08,19,00,59,20.60
2016,08,19,01,00,20.60
2016,08,19,01,01,20.60
2016,08,19,01,02,20.60
2016,08,19,01,03,20.50
2016,08,19,01,04,20.50
2016,08,19,01,05,20.40
2016,08,19,01,06,20.40
2016,08,19,01,07,20.40
2016,08,19,01,08,20.30
2016,08,19,01,09,20.30
2016,08,19,01,10,20.30
2016,08,19,01,11,20.30
2016,08,19,01,12,20.30
2016,08,19,01,13,20.30
2016,08,19,01,14,20.30
2016,08,19,01,15,20.30
2016,08,19,01,16,20.30
2016,08,19,01,17,20.40
2016,08,19,01,18,20.40
2016,08,19,01,19,20.40
2016,08,19,01,20,20.40
2016,08,19,01,21,20.50
2016,08,19,01,22,20.50
2016,08,19,01,23,20.60
2016,08,19,01,24,20.60
2016,08,19,01,25,20.60
2016,08,19,01,26,20.60
2016,08,19,01,27,20.60
2016,08,19,01,28,20.70
2016,08,19,01,29,20.70
2016,08,19,01,30,20.70
2016,08,19,01,31,20.70
2016,08,19,01,32,20.70
2016,08,19,01,33,20.70
2016,08,19,01,34,20.60
2016,08,19,01,35,20.70
2016,08,19,01,36,20.70
2016,08,19,01,37,20.70
2016,08,19,01,38,20.70
2016,08,19,01,39,20.70
2016,08,19,01,40,20.70
2016,08,19,01,41,20.70
2016,08,19,01,42,20.70
2016,08,19,01,43,20.70
2016,08,19,01,44,20.80
2016,08,19,01,45,20.80
2016,08,19,01,46,20.80
2016,08,19,01,47,20.80
2016,08,19,01,48,20.80
2016,08,19,01,49,20.80
2016,08,19,01,50,20.80
2016,08,19,01,51,20.80
2016,08,19,01,52,20.70
2016,08,19,01,53,20.70
2016,08,19,01,54,20.70
2016,08,19,01,55,20.70
2016,08,19,01,56,20.70
2016,08,19,01,57,20.70
2016,08,19,01,58,20.70
2016,08,19,01,59,20.70
2016,08,19,02,00,20.70
2016,08,19,02,01,20.60
2016,08,19,02,02,20.60
2016,08,19,02,03,20.60
2016,08,19,02,04,20.60
2016,08,19,02,05,20.60
2016,08,19,02,06,20.60
2016,08,19,02,07,20.50
2016,08,19,02,08,20.50
2016,08,19,02,09,20.50
2016,08,19,02,10,20.50
2016,08,19,02,11,20.50
2016,08,19,02,12,20.50
2016,08,19,02,13,20.50
2016,08,19,02,14,20.50
2016,08,19,02,15,20.50
2016,08,19,02,16,20.50
2016,08,19,02,17,20.50
2016,08,19,02,18,20.40
2016,08,19,02,19,20.40
2016,08,19,02,20,20.40
2016,08,19,02,21,20.50
2016,08,19,02,22,20.40
2016,08,19,02,23,20.40
2016,08,19,02,24,20.50
2016,08,19,02,25,20.40
2016,08,19,02,26,20.40
2016,08,19,02,27,20.40
2016,08,19,02,28,20.40
2016,08,19,02,29,20.40
2016,08,19,02,30,20.40
2016,08,19,02,31,20.40
2016,08,19,02,32,20.40
2016,08,19,02,33,20.30
2016,08,19,02,34,20.30
2016,08,19,02,35,20.30
2016,08,19,02,36,20.30
2016,08,19,02,37,20.30
2016,08,19,02,38,20.30
2016,08,19,02,39,20.30
2016,08,19,02,40,20.30
2016,08,19,02,41,20.30
2016,08,19,02,42,20.30
2016,08,19,02,43,20.20
2016,08,19,02,44,20.20
2016,08,19,02,45,20.20
2016,08,19,02,46,20.20
2016,08,19,02,47,20.20
2016,08,19,02,48,20.10
2016,08,19,02,49,20.10
2016,08,19,02,50,20.10
2016,08,19,02,51,20.10
2016,08,19,02,52,20.10
2016,08,19,02,53,20.10
2016,08,19,02,54,20.10
2016,08,19,02,55,20.10
2016,08,19,02,56,20.00
2016,08,19,02,57,20.00
2016,08,19,02,58,20.00
2016,08,19,02,59,19.90
2016,08,19,03,00,19.90
2016,08,19,03,01,19.90
2016,08,19,03,02,19.90
2016,08,19,03,03,19.80
2016,08,19,03,05,19.70
2016,08,19,03,06,19.60
2016,08,19,03,07,19.50
2016,08,19,03,08,19.40
2016,08,19,03,09,19.30
2016,08,19,03,10,19.20
2016,08,19,03,11,19.10
2016,08,19,03,12,19.00
2016,08,19,03,13,18.90
2016,08,19,03,14,18.80
2016,08,19,03,15,18.70
2016,08,19,03,16,18.60
2016,08,19,03,17,18.60
2016,08,19,03,18,18.50
2016,08,19,03,19,18.50
2016,08,19,03,20,18.40
2016,08,19,03,21,18.40
2016,08,19,03,22,18.30
2016,08,19,03,23,18.30
2016,08,19,03,24,18.30
2016,08,19,03,25,18.20
2016,08,19,03,26,18.10
2016,08,19,03,27,18.10
2016,08,19,03,28,18.00
2016,08,19,03,29,17.90
2016,08,19,03,30,17.90
2016,08,19,03,31,17.80
2016,08,19,03,32,17.80
2016,08,19,03,33,17.70
2016,08,19,03,34,17.60
2016,08,19,03,35,17.50
2016,08,19,03,36,17.50
2016,08,19,03,37,17.40
2016,08,19,03,38,17.40
2016,08,19,03,39,17.40
2016,08,19,03,40,17.40
2016,08,19,03,41,17.30
2016,08,19,03,42,17.30
2016,08,19,03,43,17.30
2016,08,19,03,44,17.30
2016,08,19,03,45,17.30
2016,08,19,03,46,17.30
2016,08,19,03,47,17.20
2016,08,19,03,48,17.20
2016,08,19,03,49,17.20
2016,08,19,03,50,17.20
2016,08,19,03,51,17.10
2016,08,19,03,52,17.10
2016,08,19,03,53,17.10
2016,08,19,03,54,17.10
2016,08,19,03,55,17.10
2016,08,19,03,56,17.00
2016,08,19,03,57,17.00
2016,08,19,03,58,17.00
2016,08,19,03,59,16.90
2016,08,19,04,00,16.90
2016,08,19,04,01,16.90
2016,08,19,04,02,16.90
2016,08,19,04,03,17.00
2016,08,19,04,04,17.00
2016,08,19,04,05,17.10
2016,08,19,04,06,17.20
2016,08,19,04,07,17.20
2016,08,19,04,08,17.30
2016,08,19,04,09,17.30
2016,08,19,04,10,17.30
2016,08,19,04,11,17.40
2016,08,19,04,12,17.40
2016,08,19,04,13,17.40
2016,08,19,04,14,17.40
2016,08,19,04,15,17.40
2016,08,19,04,16,17.40
2016,08,19,04,17,17.40
2016,08,19,04,18,17.40
2016,08,19,04,19,17.30
2016,08,19,04,20,17.30
2016,08,19,04,21,17.30
2016,08,19,04,22,17.30
2016,08,19,04,23,17.30
2016,08,19,04,24,17.30
2016,08,19,04,25,17.30
2016,08,19,04,26,17.20
2016,08,19,04,27,17.20
2016,08,19,04,28,17.20
2016,08,19,04,29,17.10
2016,08,19,04,30,17.10
2016,08,19,04,31,17.10
2016,08,19,04,32,17.00
2016,08,19,04,33,17.00
2016,08,19,04,34,16.90
2016,08,19,04,35,16.90
2016,08,19,04,36,16.90
2016,08,19,04,37,16.90
2016,08,19,04,38,16.90
2016,08,19,04,39,16.90
2016,08,19,04,40,16.80
2016,08,19,04,41,16.80
2016,08,19,04,42,16.80
2016,08,19,04,43,16.80
2016,08,19,04,44,16.80
2016,08,19,04,45,16.70
2016,08,19,04,46,16.70
2016,08,19,04,47,16.70
2016,08,19,04,48,16.60
2016,08,19,04,49,16.60
2016,08,19,04,50,16.60
2016,08,19,04,51,16.60
2016,08,19,04,52,16.50
2016,08,19,04,53,16.50
2016,08,19,04,54,16.40
2016,08,19,04,55,16.40
2016,08,19,04,56,16.40
2016,08,19,04,57,16.30
2016,08,19,04,58,16.30
2016,08,19,04,59,16.30
2016,08,19,05,00,16.30
2016,08,19,05,01,16.20
2016,08,19,05,02,16.20
2016,08,19,05,03,16.10
2016,08,19,05,04,16.10
2016,08,19,05,05,16.10
2016,08,19,05,06,16.00
2016,08,19,05,07,16.00
2016,08,19,05,08,15.90
2016,08,19,05,09,15.90
2016,08,19,05,10,15.80
2016,08,19,05,11,15.80
2016,08,19,05,12,15.70
2016,08,19,05,13,15.60
2016,08,19,05,14,15.60
2016,08,19,05,15,15.50
2016,08,19,05,16,15.50
2016,08,19,05,17,15.40
2016,08,19,05,18,15.40
2016,08,19,05,19,15.40
2016,08,19,05,20,15.30
2016,08,19,05,21,15.30
2016,08,19,05,22,15.30
2016,08,19,05,23,15.30
2016,08,19,05,24,15.30
2016,08,19,05,25,15.30
2016,08,19,05,26,15.30
2016,08,19,05,27,15.30
2016,08,19,05,28,15.30
2016,08,19,05,29,15.30
2016,08,19,05,30,15.30
2016,08,19,05,31,15.30
2016,08,19,05,32,15.20
2016,08,19,05,33,15.20
2016,08,19,05,34,15.20
2016,08,19,05,35,15.20
2016,08,19,05,36,15.20
2016,08,19,05,37,15.20
2016,08,19,05,38,15.20
2016,08,19,05,39,15.10
2016,08,19,05,40,15.10
2016,08,19,05,41,15.10
2016,08,19,05,42,15.00
2016,08,19,05,43,15.00
2016,08,19,05,44,14.90
2016,08,19,05,45,14.90
2016,08,19,05,46,14.90
2016,08,19,05,47,14.80
2016,08,19,05,48,14.80
2016,08,19,05,49,14.80
2016,08,19,05,50,14.80
2016,08,19,05,51,14.80
2016,08,19,05,52,14.80
2016,08,19,05,53,14.80
2016,08,19,05,54,14.70
2016,08,19,05,55,14.70
2016,08,19,05,56,14.70
2016,08,19,05,57,14.70
2016,08,19,05,58,14.70
2016,08,19,05,59,14.80
2016,08,19,06,00,14.90
2016,08,19,06,01,15.00
2016,08,19,06,02,15.20
2016,08,19,06,03,15.40
2016,08,19,06,04,15.50
2016,08,19,06,05,15.70
2016,08,19,06,06,15.80
2016,08,19,06,07,16.00
2016,08,19,06,08,16.10
2016,08,19,06,09,16.20
2016,08,19,06,10,16.20
2016,08,19,06,11,16.30
2016,08,19,06,12,16.40
2016,08,19,06,13,16.50
2016,08,19,06,14,16.50
2016,08,19,06,15,16.50
2016,08,19,06,16,16.40
2016,08,19,06,17,16.40
2016,08,19,06,18,16.30
2016,08,19,06,19,16.20
2016,08,19,06,20,16.20
2016,08,19,06,21,16.10
2016,08,19,06,22,16.00
2016,08,19,06,23,16.00
2016,08,19,06,24,15.90
2016,08,19,06,25,15.90
2016,08,19,06,26,15.90
2016,08,19,06,27,15.80
2016,08,19,06,28,15.80
2016,08,19,06,29,15.80
2016,08,19,06,30,15.80
2016,08,19,06,31,15.80
2016,08,19,06,32,15.90
2016,08,19,06,33,16.10
2016,08,19,06,34,16.20
2016,08,19,06,35,16.30
2016,08,19,06,36,16.40
2016,08,19,06,37,16.40
2016,08,19,06,38,16.50
2016,08,19,06,39,16.60
2016,08,19,06,40,16.60
2016,08,19,06,41,16.70
2016,08,19,06,42,16.70
2016,08,19,06,43,16.70
2016,08,19,06,44,16.60
2016,08,19,06,45,16.60
2016,08,19,06,46,16.70
2016,08,19,06,47,16.70
2016,08,19,06,48,16.80
2016,08,19,06,49,16.80
2016,08,19,06,50,16.90
2016,08,19,06,51,16.90
2016,08,19,06,52,16.90
2016,08,19,06,53,16.90
2016,08,19,06,54,16.80
2016,08,19,06,55,16.70
2016,08,19,06,56,16.60
2016,08,19,06,57,16.60
2016,08,19,06,58,16.50
2016,08,19,06,59,16.40
2016,08,19,07,00,16.40
2016,08,19,07,01,16.40
2016,08,19,07,02,16.30
2016,08,19,07,03,16.30
2016,08,19,07,04,16.30
2016,08,19,07,05,16.30
2016,08,19,07,06,16.20
2016,08,19,07,07,16.20
2016,08,19,07,08,16.10
2016,08,19,07,09,16.10
2016,08,19,07,10,16.00
2016,08,19,07,11,15.90
2016,08,19,07,12,15.90
2016,08,19,07,13,15.80
2016,08,19,07,14,15.80
2016,08,19,07,15,15.80
2016,08,19,07,16,15.70
2016,08,19,07,17,15.70
2016,08,19,07,18,15.70
2016,08,19,07,19,15.70
2016,08,19,07,20,15.70
2016,08,19,07,21,15.70
2016,08,19,07,22,15.70
2016,08,19,07,23,15.70
2016,08,19,07,24,15.70
2016,08,19,07,25,15.70
2016,08,19,07,26,15.70
2016,08,19,07,27,15.70
2016,08,19,07,28,15.70
2016,08,19,07,29,15.70
2016,08,19,07,30,15.80
2016,08,19,07,31,15.80
2016,08,19,07,32,15.80
2016,08,19,07,33,15.80
2016,08,19,07,34,15.90
2016,08,19,07,35,15.90
2016,08,19,07,36,15.90
2016,08,19,07,37,16.00
2016,08,19,07,38,16.00
2016,08,19,07,39,16.10
2016,08,19,07,40,16.10
2016,08,19,07,41,16.10
2016,08,19,07,42,16.10
2016,08,19,07,43,16.20
2016,08,19,07,44,16.20
2016,08,19,07,45,16.20
2016,08,19,07,46,16.20
2016,08,19,07,47,16.20
2016,08,19,07,48,16.20
2016,08,19,07,49,16.30
2016,08,19,07,50,16.30
2016,08,19,07,51,16.30
2016,08,19,07,52,16.20
2016,08,19,07,53,16.20
2016,08,19,07,54,16.20
2016,08,19,07,55,16.20
2016,08,19,07,56,16.20
2016,08,19,07,57,16.20
2016,08,19,07,58,16.20
2016,08,19,07,59,16.20
2016,08,19,08,00,16.30
2016,08,19,08,01,16.30
2016,08,19,08,02,16.30
2016,08,19,08,03,16.30
2016,08,19,08,04,16.40
2016,08,19,08,05,16.40
2016,08,19,08,06,16.40
2016,08,19,08,07,16.40
2016,08,19,08,08,16.40
2016,08,19,08,09,16.30
2016,08,19,08,10,16.30
2016,08,19,08,11,16.30
2016,08,19,08,12,16.30
2016,08,19,08,13,16.30
2016,08,19,08,14,16.20
2016,08,19,08,15,16.20
2016,08,19,08,16,16.10
2016,08,19,08,17,16.10
2016,08,19,08,18,16.00
2016,08,19,08,19,16.00
2016,08,19,08,20,15.90
2016,08,19,08,21,15.90
2016,08,19,08,22,15.80
2016,08,19,08,23,15.80
2016,08,19,08,24,15.80
2016,08,19,08,25,15.80
2016,08,19,08,26,15.90
2016,08,19,08,27,15.90
2016,08,19,08,28,16.00
2016,08,19,08,29,16.00
2016,08,19,08,30,16.10
2016,08,19,08,31,16.20
2016,08,19,08,32,16.20
2016,08,19,08,33,16.30
2016,08,19,08,34,16.30
2016,08,19,08,35,16.30
2016,08,19,08,36,16.40
2016,08,19,08,37,16.40
2016,08,19,08,38,16.40
2016,08,19,08,39,16.40
2016,08,19,08,40,16.40
2016,08,19,08,41,16.40
2016,08,19,08,42,16.40
2016,08,19,08,43,16.40
2016,08,19,08,44,16.30
2016,08,19,08,45,16.30
2016,08,19,08,46,16.30
2016,08,19,08,47,16.30
2016,08,19,08,48,16.20
2016,08,19,08,49,16.20
2016,08,19,08,50,16.20
2016,08,19,08,51,16.20
2016,08,19,08,52,16.20
2016,08,19,08,53,16.20
2016,08,19,08,54,16.20
2016,08,19,08,55,16.30
2016,08,19,08,56,16.30
2016,08,19,08,57,16.30
2016,08,19,08,58,16.30
2016,08,19,08,59,16.30
2016,08,19,09,00,16.40
2016,08,19,09,01,16.40
2016,08,19,09,02,16.40
2016,08,19,09,03,16.50
2016,08,19,09,04,16.50
2016,08,19,09,05,16.50
2016,08,19,09,06,16.60
2016,08,19,09,07,16.60
2016,08,19,09,08,16.60
2016,08,19,09,09,16.60
2016,08,19,09,10,16.70
2016,08,19,09,11,16.70
2016,08,19,09,12,16.70
2016,08,19,09,13,16.70
2016,08,19,09,14,16.70
2016,08,19,09,15,16.70
2016,08,19,09,16,16.70
2016,08,19,09,17,16.70
2016,08,19,09,18,16.70
2016,08,19,09,19,16.70
2016,08,19,09,20,16.70
2016,08,19,09,21,16.70
2016,08,19,09,22,16.80
2016,08,19,09,23,16.80
2016,08,19,09,24,16.80
2016,08,19,09,25,16.80
2016,08,19,09,26,16.90
2016,08,19,09,27,16.90
2016,08,19,09,28,16.90
2016,08,19,09,29,16.90
2016,08,19,09,30,16.90
2016,08,19,09,31,16.90
2016,08,19,09,32,16.90
2016,08,19,09,33,16.90
2016,08,19,09,34,17.00
2016,08,19,09,35,17.00
2016,08,19,09,36,17.00
2016,08,19,09,37,17.00
2016,08,19,09,38,17.00
2016,08,19,09,39,16.90
2016,08,19,09,40,16.90
2016,08,19,09,41,16.90
2016,08,19,09,42,16.90
2016,08,19,09,43,16.90
2016,08,19,09,44,16.90
2016,08,19,09,45,16.90
2016,08,19,09,46,16.90
2016,08,19,09,47,16.90
2016,08,19,09,48,16.90
2016,08,19,09,49,16.90
2016,08,19,09,50,17.00
2016,08,19,09,51,17.00
2016,08,19,09,52,17.00
2016,08,19,09,53,17.10
2016,08,19,09,54,17.10
2016,08,19,09,55,17.10
2016,08,19,09,56,17.10
2016,08,19,09,57,17.10
2016,08,19,09,58,17.20
2016,08,19,09,59,17.20
2016,08,19,10,00,17.20
2016,08,19,10,01,17.30
2016,08,19,10,02,17.30
2016,08,19,10,03,17.30
2016,08,19,10,04,17.30
2016,08,19,10,05,17.30
2016,08,19,10,06,17.30
2016,08,19,10,07,17.30
2016,08,19,10,08,17.30
2016,08,19,10,09,17.30
2016,08,19,10,10,17.40
2016,08,19,10,11,17.40
2016,08,19,10,12,17.40
2016,08,19,10,13,17.40
2016,08,19,10,14,17.40
2016,08,19,10,15,17.40
2016,08,19,10,16,17.50
2016,08,19,10,17,17.50
2016,08,19,10,18,17.50
2016,08,19,10,19,17.60
2016,08,19,10,20,17.60
2016,08,19,10,21,17.60
2016,08,19,10,22,17.70
2016,08,19,10,23,17.70
2016,08,19,10,24,17.70
2016,08,19,10,25,17.80
2016,08,19,10,26,17.80
2016,08,19,10,27,17.90
2016,08,19,10,28,17.90
2016,08,19,10,29,17.90
2016,08,19,10,30,17.90
2016,08,19,10,31,17.90
2016,08,19,10,32,18.00
2016,08,19,10,33,18.00
2016,08,19,10,34,18.00
2016,08,19,10,35,18.00
2016,08,19,10,36,18.00
2016,08,19,10,37,18.10
2016,08,19,10,38,18.10
2016,08,19,10,39,18.10
2016,08,19,10,40,18.10
2016,08,19,10,41,18.20
2016,08,19,10,42,18.20
2016,08,19,10,43,18.30
2016,08,19,10,44,18.40
2016,08,19,10,45,18.40
2016,08,19,10,46,18.50
2016,08,19,10,47,18.50
2016,08,19,10,48,18.50
2016,08,19,10,49,18.50
2016,08,19,10,50,18.50
2016,08,19,10,51,18.50
2016,08,19,10,52,18.40
2016,08,19,10,53,18.40
2016,08,19,10,54,18.40
2016,08,19,10,55,18.40
2016,08,19,10,56,18.40
2016,08,19,10,57,18.30
2016,08,19,10,58,18.30
2016,08,19,10,59,18.30
2016,08,19,11,00,18.40
2016,08,19,11,01,18.40
2016,08,19,11,02,18.40
2016,08,19,11,03,18.40
2016,08,19,11,04,18.50
2016,08,19,11,05,18.50
2016,08,19,11,06,18.50
2016,08,19,11,07,18.60
2016,08,19,11,08,18.60
2016,08,19,11,09,18.60
2016,08,19,11,10,18.70
2016,08,19,11,11,18.70
2016,08,19,11,12,18.70
2016,08,19,11,13,18.70
2016,08,19,11,14,18.70
2016,08,19,11,15,18.80
2016,08,19,11,16,18.80
2016,08,19,11,17,18.80
2016,08,19,11,18,18.80
2016,08,19,11,19,18.80
2016,08,19,11,20,18.80
2016,08,19,11,21,18.80
2016,08,19,11,22,18.90
2016,08,19,11,23,18.90
2016,08,19,11,24,18.90
2016,08,19,11,25,18.90
2016,08,19,11,26,19.00
2016,08,19,11,27,19.00
2016,08,19,11,28,19.00
2016,08,19,11,29,19.10
2016,08,19,11,30,19.10
2016,08,19,11,31,19.10
2016,08,19,11,32,19.10
2016,08,19,11,33,19.10
2016,08,19,11,34,19.20
2016,08,19,11,35,19.20
2016,08,19,11,36,19.20
2016,08,19,11,37,19.30
2016,08,19,11,38,19.30
2016,08,19,11,39,19.40
2016,08,19,11,40,19.50
2016,08,19,11,41,19.60
2016,08,19,11,42,19.70
2016,08,19,11,43,19.70
2016,08,19,11,44,19.80
2016,08,19,11,45,19.80
2016,08,19,11,46,19.90
2016,08,19,11,47,20.00
2016,08,19,11,48,20.10
2016,08,19,11,49,20.10
2016,08,19,11,50,20.10
2016,08,19,11,51,20.10
2016,08,19,11,52,20.10
2016,08,19,11,53,20.10
2016,08,19,11,54,20.10
2016,08,19,11,55,20.10
2016,08,19,11,56,20.00
2016,08,19,11,57,20.00
2016,08,19,11,58,20.00
2016,08,19,11,59,20.10
2016,08,19,12,00,20.10
2016,08,19,12,01,20.10
2016,08,19,12,02,20.20
2016,08,19,12,03,20.30
2016,08,19,12,04,20.30
2016,08,19,12,05,20.40
2016,08,19,12,06,20.50
2016,08,19,12,07,20.60
2016,08,19,12,08,20.70
2016,08,19,12,09,20.80
2016,08,19,12,10,20.90
2016,08,19,12,11,20.90
2016,08,19,12,12,20.90
2016,08,19,12,13,20.90
2016,08,19,12,14,21.00
2016,08,19,12,15,21.00
2016,08,19,12,16,21.10
2016,08,19,12,17,21.10
2016,08,19,12,18,21.10
2016,08,19,12,19,21.20
2016,08,19,12,20,21.20
2016,08,19,12,21,21.20
2016,08,19,12,22,21.30
2016,08,19,12,23,21.30
2016,08,19,12,24,21.30
2016,08,19,12,25,21.40
2016,08,19,12,26,21.50
2016,08,19,12,27,21.50
2016,08,19,12,28,21.60
2016,08,19,12,29,21.70
2016,08,19,12,30,21.70
2016,08,19,12,31,21.80
2016,08,19,12,32,21.80
2016,08,19,12,33,22.00
2016,08,19,12,34,22.10
2016,08,19,12,35,22.20
2016,08,19,12,36,22.40
2016,08,19,12,37,22.50
2016,08,19,12,38,22.70
2016,08,19,12,39,22.80
2016,08,19,12,40,22.80
2016,08,19,12,41,22.90
2016,08,19,12,42,22.90
2016,08,19,12,43,22.90
2016,08,19,12,44,22.90
2016,08,19,12,45,22.90
2016,08,19,12,46,23.00
2016,08,19,12,47,23.00
2016,08,19,12,48,23.10
2016,08,19,12,49,23.20
2016,08,19,12,50,23.20
2016,08,19,12,51,23.20
2016,08,19,12,52,23.30
2016,08,19,12,53,23.30
2016,08,19,12,54,23.40
2016,08,19,12,55,23.50
2016,08,19,12,56,23.70
2016,08,19,12,57,23.80
2016,08,19,12,58,23.90
2016,08,19,12,59,24.10
2016,08,19,13,00,24.20
2016,08,19,13,01,24.30
2016,08,19,13,02,24.50
2016,08,19,13,03,24.50
2016,08,19,13,04,24.60
2016,08,19,13,05,24.70
2016,08,19,13,06,24.70
2016,08,19,13,07,24.70
2016,08,19,13,08,24.70
2016,08,19,13,09,24.80
2016,08,19,13,10,24.90
2016,08,19,13,11,25.00
2016,08,19,13,12,25.10
2016,08,19,13,13,25.20
2016,08,19,13,14,25.40
2016,08,19,13,15,25.40
2016,08,19,13,16,25.50
2016,08,19,13,17,25.50
2016,08,19,13,18,25.50
2016,08,19,13,19,25.50
2016,08,19,13,20,25.50
2016,08,19,13,21,25.40
2016,08,19,13,22,25.40
2016,08,19,13,23,25.40
2016,08,19,13,24,25.40
2016,08,19,13,25,25.40
2016,08,19,13,26,25.40
2016,08,19,13,27,25.40
2016,08,19,13,28,25.30
2016,08,19,13,29,25.30
2016,08,19,13,30,25.30
2016,08,19,13,31,25.30
2016,08,19,13,32,25.40
2016,08,19,13,33,25.40
2016,08,19,13,34,25.40
2016,08,19,13,35,25.40
2016,08,19,13,36,25.40
2016,08,19,13,37,25.50
2016,08,19,13,38,25.50
2016,08,19,13,39,25.60
2016,08,19,13,40,25.60
2016,08,19,13,41,25.70
2016,08,19,13,42,25.80
2016,08,19,13,43,25.80
2016,08,19,13,44,25.80
2016,08,19,13,45,25.90
2016,08,19,13,46,26.00
2016,08,19,13,47,26.10
2016,08,19,13,48,26.20
2016,08,19,13,49,26.30
2016,08,19,13,50,26.40
2016,08,19,13,51,26.50
2016,08,19,13,52,26.60
2016,08,19,13,53,26.70
2016,08,19,13,54,26.80
2016,08,19,13,55,26.80
2016,08,19,13,56,26.90
2016,08,19,13,57,27.00
2016,08,19,13,58,27.00
2016,08,19,13,59,27.10
2016,08,19,14,00,27.10
2016,08,19,14,01,27.10
2016,08,19,14,02,27.20
2016,08,19,14,03,27.20
2016,08,19,14,04,27.20
2016,08,19,14,05,27.30
2016,08,19,14,06,27.40
2016,08,19,14,07,27.40
2016,08,19,14,08,27.50
2016,08,19,14,09,27.60
2016,08,19,14,10,27.60
2016,08,19,14,11,27.70
2016,08,19,14,12,27.70
2016,08,19,14,13,27.80
2016,08,19,14,14,27.80
2016,08,19,14,15,27.80
2016,08,19,14,16,27.80
2016,08,19,14,17,27.80
2016,08,19,14,18,27.80
2016,08,19,14,19,27.90
2016,08,19,14,20,27.90
2016,08,19,14,21,27.90
2016,08,19,14,22,27.90
2016,08,19,14,23,27.90
2016,08,19,14,24,27.90
2016,08,19,14,25,27.90
2016,08,19,14,26,27.90
2016,08,19,14,27,27.90
2016,08,19,14,28,27.80
2016,08,19,14,29,27.80
2016,08,19,14,30,27.80
2016,08,19,14,31,27.80
2016,08,19,14,32,27.80
2016,08,19,14,33,27.80
2016,08,19,14,34,27.80
2016,08,19,14,35,27.80
2016,08,19,14,36,27.80
2016,08,19,14,37,27.80
2016,08,19,14,38,27.90
2016,08,19,14,39,27.90
2016,08,19,14,40,27.90
2016,08,19,14,41,28.00
2016,08,19,14,42,28.00
2016,08,19,14,43,28.10
2016,08,19,14,44,28.20
2016,08,19,14,45,28.30
2016,08,19,14,46,28.30
2016,08,19,14,47,28.40
2016,08,19,14,48,28.40
2016,08,19,14,49,28.50
2016,08,19,14,50,28.60
2016,08,19,14,51,28.60
2016,08,19,14,52,28.70
2016,08,19,14,53,28.80
2016,08,19,14,54,28.90
2016,08,19,14,55,28.90
2016,08,19,14,56,29.00
2016,08,19,14,57,29.10
2016,08,19,14,58,29.10
2016,08,19,14,59,29.20
2016,08,19,15,00,29.30
2016,08,19,15,01,29.30
2016,08,19,15,02,29.30
2016,08,19,15,03,29.30
2016,08,19,15,04,29.40
2016,08,19,15,05,29.40
2016,08,19,15,06,29.40
2016,08,19,15,07,29.40
2016,08,19,15,08,29.50
2016,08,19,15,09,29.50
2016,08,19,15,10,29.50
2016,08,19,15,11,29.60
2016,08,19,15,12,29.60
2016,08,19,15,13,29.60
2016,08,19,15,14,29.70
2016,08,19,15,15,29.70
2016,08,19,15,16,29.80
2016,08,19,15,17,29.80
2016,08,19,15,18,29.80
2016,08,19,15,19,29.90
2016,08,19,15,20,29.90
2016,08,19,15,21,29.90
2016,08,19,15,22,30.00
2016,08,19,15,23,30.00
2016,08,19,15,24,30.10
2016,08,19,15,25,30.10
2016,08,19,15,26,30.20
2016,08,19,15,27,30.20
2016,08,19,15,28,30.20
2016,08,19,15,29,30.10
2016,08,19,15,30,30.00
2016,08,19,15,31,29.80
2016,08,19,15,32,29.50
2016,08,19,15,33,29.30
2016,08,19,15,34,29.10
2016,08,19,15,35,28.90
2016,08,19,15,36,28.80
2016,08,19,15,37,28.60
2016,08,19,15,38,28.50
2016,08,19,15,39,28.40
2016,08,19,15,40,28.30
2016,08,19,15,41,28.30
2016,08,19,15,42,28.20
2016,08,19,15,43,28.20
2016,08,19,15,44,28.20
2016,08,19,15,45,28.10
2016,08,19,15,46,28.10
2016,08,19,15,47,28.00
2016,08,19,15,48,27.90
2016,08,19,15,49,27.90
2016,08,19,15,50,27.90
2016,08,19,15,51,27.90
2016,08,19,15,52,27.90
2016,08,19,15,53,27.90
2016,08,19,15,54,27.90
2016,08,19,15,55,27.90
2016,08,19,15,56,28.00
2016,08,19,15,57,28.10
2016,08,19,15,58,28.10
2016,08,19,15,59,28.20
2016,08,19,16,00,28.30
2016,08,19,16,01,28.30
2016,08,19,16,02,28.30
2016,08,19,16,03,28.40
2016,08,19,16,04,28.30
2016,08,19,16,05,28.30
2016,08,19,16,06,28.40
2016,08,19,16,07,28.40
2016,08,19,16,08,28.50
2016,08,19,16,09,28.60
2016,08,19,16,10,28.70
2016,08,19,16,11,28.80
2016,08,19,16,12,28.80
2016,08,19,16,13,28.80
2016,08,19,16,14,28.90
2016,08,19,16,15,28.90
2016,08,19,16,16,28.80
2016,08,19,16,17,28.80
2016,08,19,16,18,28.80
2016,08,19,16,19,28.70
2016,08,19,16,20,28.70
2016,08,19,16,21,28.70
2016,08,19,16,22,28.70
2016,08,19,16,23,28.80
2016,08,19,16,24,28.80
2016,08,19,16,25,28.90
2016,08,19,16,26,28.90
2016,08,19,16,27,29.00
2016,08,19,16,28,29.10
2016,08,19,16,29,29.20
2016,08,19,16,30,29.20
2016,08,19,16,31,29.30
2016,08,19,16,32,29.40
2016,08,19,16,33,29.50
2016,08,19,16,34,29.60
2016,08,19,16,35,29.60
2016,08,19,16,36,29.60
2016,08,19,16,37,29.60
2016,08,19,16,38,29.50
2016,08,19,16,39,29.40
2016,08,19,16,40,29.40
2016,08,19,16,41,29.40
2016,08,19,16,42,29.40
2016,08,19,16,43,29.40
2016,08,19,16,44,29.40
2016,08,19,16,45,29.40
2016,08,19,16,46,29.40
2016,08,19,16,47,29.40
2016,08,19,16,48,29.40
2016,08,19,16,49,29.50
2016,08,19,16,50,29.50
2016,08,19,16,51,29.50
2016,08,19,16,52,29.60
2016,08,19,16,53,29.60
2016,08,19,16,54,29.70
2016,08,19,16,55,29.80
2016,08,19,16,56,29.80
2016,08,19,16,57,29.80
2016,08,19,16,58,29.90
2016,08,19,16,59,30.00
2016,08,19,17,00,30.10
2016,08,19,17,01,30.10
2016,08,19,17,02,30.20
2016,08,19,17,03,30.30
2016,08,19,17,04,30.30
2016,08,19,17,05,30.40
2016,08,19,17,06,30.40
2016,08,19,17,07,30.40
2016,08,19,17,08,30.40
2016,08,19,17,09,30.40
2016,08,19,17,10,30.30
2016,08,19,17,11,30.10
2016,08,19,17,12,29.90
2016,08,19,17,13,29.70
2016,08,19,17,14,29.60
2016,08,19,17,15,29.50
2016,08,19,17,16,29.40
2016,08,19,17,17,29.40
2016,08,19,17,18,29.40
2016,08,19,17,19,29.40
2016,08,19,17,20,29.40